User: anonymous   Login
Location: Holmes Observatory
(37.1039°N, 122.0513°W)
Time: 14:36:52
(UTC-08:00)
Language:

Cosmos 921 Rocket - Orbit

View from above orbital plane
View from above orbital plane
View from above satellite
View from above satellite

Ground track
Ground track

The orbit data is extracted from the following two-line orbital elements,

1 10096U 77055B   15061.44015738  .00000766  00000-0  83904-4 0  9992
2 10096 075.8336 047.2616 0043083 181.7774 178.3271 14.88146354 37619
Epoch (UTC): 02 March 2015 10:33:49
Eccentricity: 0.0043083
inclination: 75.8336°
perigee height: 573 km
apogee height: 634 km
right ascension of ascending node: 47.2616°
argument of perigee: 181.7774°
revolutions per day: 14.88146354
mean anomaly at epoch: 178.3271°
orbit number at epoch: 3761

The dashed part of the orbit path shows where the satellite is in the earth's shadow,  

DLR